EST,Max TemperatureF,Mean TemperatureF,Min TemperatureF,Max Dew PointF,MeanDew PointF,Min DewpointF,Max Humidity, Mean Humidity, Min Humidity, Max Sea Level PressureIn, Mean Sea Level PressureIn, Min Sea Level PressureIn, Max VisibilityMiles, Mean VisibilityMiles, Min VisibilityMiles, Max Wind SpeedMPH, Mean Wind SpeedMPH, Max Gust SpeedMPH,PrecipitationIn, CloudCover, Events, WindDirDegrees
2012-12-1,37,32,26,36,31,24,100,94,92,30.20,30.01,29.74,5,1,0,17,8,22,0.00,8,Fog-Snow,173
2012-12-2,40,37,35,36,34,32,94,91,75,30.00,29.87,29.75,7,3,0,16,5,22,0.00,8,Fog,253
2012-12-3,54,44,35,52,40,33,94,91,80,30.00,29.79,29.55,10,3,0,21,16,28,0.01,7,Fog-Rain,202
2012-12-4,42,34,23,38,25,10,86,72,47,30.18,29.86,29.66,10,10,7,23,11,31,0.01,3,Snow,264
2012-12-5,30,27,24,22,18,16,82,73,55,30.38,30.25,30.11,10,10,4,22,11,29,0.00,6,Snow,279
2012-12-6,35,32,28,32,29,23,93,85,78,30.11,29.90,29.73,10,9,2,23,17,38,0.00,8,Rain-Snow,206
2012-12-7,33,30,26,29,23,19,82,75,64,30.00,29.91,29.80,10,10,4,12,5,16,0.00,7,Snow,310
2012-12-8,29,21,12,22,18,9,92,82,59,30.14,30.03,29.96,10,8,2,10,3,,0.00,6,Snow,313
2012-12-9,28,19,10,23,16,7,87,83,69,30.19,30.05,29.79,10,8,1,12,2,,0.00,4,Snow,75
2012-12-10,26,24,22,24,20,18,93,84,74,29.84,29.76,29.69,10,6,1,20,8,25,0.01,8,Snow,354
2012-12-11,25,21,18,19,15,10,87,78,64,29.92,29.81,29.71,10,10,7,18,7,25,0.00,8,Snow,207
2012-12-12,35,20,6,26,13,3,86,74,59,30.12,30.01,29.92,10,10,10,18,9,25,0.00,5,Snow,220
2012-12-13,37,32,29,30,25,21,93,73,56,30.07,29.99,29.94,10,10,5,22,14,26,0.00,6,,209
2012-12-14,29,27,26,26,23,21,90,82,78,30.21,30.14,30.08,10,10,7,9,6,,0.00,8,,51
2012-12-15,37,32,28,32,30,25,94,90,81,30.10,29.86,29.55,10,7,4,17,10,24,0.00,8,Rain-Snow,147
2012-12-16,36,34,33,36,32,30,100,93,87,29.56,29.52,29.49,10,5,0,10,6,,0.00,8,Fog-Rain-Snow,167
2012-12-17,32,30,27,31,26,21,92,84,74,29.66,29.61,29.56,10,9,3,8,2,,0.00,8,Snow,283
2012-12-18,30,28,24,25,22,21,91,81,74,29.74,29.68,29.65,10,10,10,4,0,,0.00,8,,200
2012-12-19,35,25,15,23,20,14,95,87,60,30.01,29.89,29.75,10,10,10,9,1,,0.00,2,,216
2012-12-20,32,26,20,30,25,18,100,93,86,29.99,29.75,29.49,10,5,0,34,7,43,0.00,7,Snow,31
2012-12-21,30,26,22,29,24,17,94,89,80,30.02,29.74,29.49,10,5,1,38,29,52,0.00,8,Snow,353
2012-12-22,26,19,12,19,16,10,94,84,74,30.03,29.95,29.82,10,10,4,15,8,22,0.00,6,,305
2012-12-23,24,16,8,21,14,6,91,82,68,29.99,29.92,29.84,10,9,4,18,12,26,0.00,6,Snow,320
2012-12-24,23,16,8,16,11,5,93,84,68,30.08,29.96,29.91,10,10,5,12,3,,0.00,8,Snow,301
2012-12-25,19,14,9,14,12,7,92,84,74,30.37,30.23,30.08,10,8,2,9,6,,0.00,8,Snow,292
2012-12-26,24,17,10,21,15,8,93,86,80,30.35,30.25,30.15,10,9,1,20,4,24,0.00,8,Snow,357
2012-12-27,23,22,20,18,18,16,87,83,76,30.18,30.15,30.11,10,10,7,17,11,23,0.00,8,Snow,358
2012-12-28,23,22,20,19,18,18,93,86,80,30.11,30.05,29.95,10,10,5,7,4,,0.00,8,Snow,321
2012-12-29,24,18,12,21,18,10,93,90,74,29.98,29.92,29.89,10,8,2,9,2,,0.00,8,Snow,313
2012-12-30,21,16,12,18,13,9,93,84,68,30.09,29.98,29.81,10,10,10,14,7,17,0.00,4,Snow,235
2012-12-31,23,18,12,18,11,3,86,79,62,30.03,29.87,29.76,10,9,0,20,9,24,0.00,8,Snow,273